Terminal Aerodrome Forecast
Issued by NWS Wilmington, OH

Current Version | Previous Version | Graphics & Text | Print | Product List | Glossary On
Versions: 1 2 3 4 5 6 7 8 9 10 11 12 13 14 15 16 17 18 19 20 21 22 23 24
000
FTUS41 KILN 151700
TAFILN
TAF
KILN 151724Z 1518/1618 20008KT P6SM FEW060 BKN120
     FM152200 23010KT P6SM -SHRA SCT040 OVC100
      TEMPO 1522/1524 5SM SHRA
     FM160100 28008KT P6SM VCSH BKN040
     FM160300 33006KT P6SM VCSH FEW008 BKN025
     FM160700 35008KT 4SM BR BKN008
     FM161400 35010KT P6SM BKN012
     FM161700 34008KT P6SM SCT025=

USA.gov is the U.S. government's official web portal to all federal, state and local government web resources and services.